Stündliche Wetter Ceglarki

Heute, 20 Oktober, Dienstag

Zeit Temperatur Niederschläge Wind Luftdruck Luftfeuchtigkeit
00:00 +5°C° 0.2 mm 5 m/S 760 mmHg 89%
01:00 +5°C° 0 mm 5 m/S 761 mmHg 89%
02:00 +5°C° 0 mm 4 m/S 761 mmHg 89%
03:00 +5°C° 0 mm 4 m/S 761 mmHg 90%
04:00 +4°C° 0 mm 4 m/S 761 mmHg 90%
05:00 +4°C° 0 mm 4 m/S 761 mmHg 91%
06:00 +4°C° 0 mm 3 m/S 761 mmHg 91%
07:00 +4°C° 0 mm 3 m/S 762 mmHg 91%
08:00 +5°C° 0 mm 3 m/S 762 mmHg 88%
09:00 +7°C° 0 mm 3 m/S 762 mmHg 84%
10:00 +8°C° 0 mm 3 m/S 762 mmHg 80%
11:00 +9°C° 0 mm 3 m/S 762 mmHg 76%
12:00 +9°C° 0 mm 3 m/S 762 mmHg 72%
13:00 +10°C° 0 mm 3 m/S 762 mmHg 68%
14:00 +10°C° 0 mm 3 m/S 761 mmHg 70%
15:00 +9°C° 0 mm 3 m/S 761 mmHg 72%
16:00 +8°C° 0 mm 4 m/S 760 mmHg 74%
17:00 +8°C° 0 mm 4 m/S 759 mmHg 74%
18:00 +7°C° 0 mm 4 m/S 759 mmHg 75%
19:00 +7°C° 0 mm 5 m/S 759 mmHg 76%
20:00 +7°C° 0 mm 5 m/S 758 mmHg 76%
21:00 +8°C° 0 mm 5 m/S 757 mmHg 76%
22:00 +8°C° 0 mm 5 m/S 757 mmHg 77%
23:00 +8°C° 0 mm 5 m/S 757 mmHg 77%

Morgen, 21 Oktober, Mittwoch

Zeit Temperatur Niederschläge Wind Luftdruck Luftfeuchtigkeit
00:00 +8°C° 0 mm 5 m/S 756 mmHg 78%
01:00 +8°C° 0 mm 5 m/S 756 mmHg 78%
02:00 +8°C° 0.1 mm 5 m/S 755 mmHg 80%
03:00 +7°C° 0.1 mm 5 m/S 755 mmHg 82%
04:00 +7°C° 0.1 mm 4 m/S 754 mmHg 84%
05:00 +7°C° 0 mm 4 m/S 754 mmHg 86%
06:00 +7°C° 0 mm 4 m/S 754 mmHg 88%
07:00 +8°C° 0 mm 4 m/S 754 mmHg 90%
08:00 +8°C° 0 mm 4 m/S 754 mmHg 88%
09:00 +10°C° 0 mm 4 m/S 755 mmHg 87%
10:00 +11°C° 0 mm 4 m/S 755 mmHg 85%
11:00 +12°C° 0 mm 4 m/S 755 mmHg 83%
12:00 +13°C° 0 mm 3 m/S 755 mmHg 81%
13:00 +14°C° 0 mm 3 m/S 755 mmHg 79%
14:00 +13°C° 0 mm 3 m/S 755 mmHg 82%
15:00 +12°C° 0 mm 3 m/S 755 mmHg 86%
16:00 +12°C° 0 mm 3 m/S 754 mmHg 89%
17:00 +11°C° 0.4 mm 4 m/S 754 mmHg 89%
18:00 +11°C° 0.4 mm 4 m/S 754 mmHg 89%
19:00 +11°C° 0.4 mm 4 m/S 754 mmHg 89%
20:00 +11°C° 0.1 mm 4 m/S 754 mmHg 86%
21:00 +10°C° 0.1 mm 5 m/S 753 mmHg 83%
22:00 +10°C° 0.1 mm 5 m/S 753 mmHg 80%
23:00 +10°C° 0 mm 5 m/S 753 mmHg 80%

übermorgen, 22 Oktober, Donnerstag

Zeit Temperatur Niederschläge Wind Luftdruck Luftfeuchtigkeit
00:00 +10°C° 0 mm 5 m/S 753 mmHg 80%
01:00 +10°C° 0 mm 5 m/S 753 mmHg 80%
02:00 +10°C° 0 mm 6 m/S 753 mmHg 80%
03:00 +10°C° 0 mm 6 m/S 752 mmHg 79%
04:00 +10°C° 0 mm 6 m/S 752 mmHg 79%
05:00 +10°C° 0 mm 6 m/S 753 mmHg 80%
06:00 +10°C° 0 mm 6 m/S 753 mmHg 82%
07:00 +10°C° 0 mm 6 m/S 753 mmHg 83%
08:00 +11°C° 0 mm 6 m/S 753 mmHg 81%
09:00 +13°C° 0 mm 6 m/S 754 mmHg 79%
10:00 +14°C° 0 mm 6 m/S 754 mmHg 77%
11:00 +15°C° 0 mm 6 m/S 754 mmHg 74%
12:00 +16°C° 0 mm 6 m/S 754 mmHg 72%
13:00 +17°C° 0 mm 6 m/S 754 mmHg 69%
14:00 +16°C° 0 mm 5 m/S 754 mmHg 73%
15:00 +16°C° 0 mm 5 m/S 754 mmHg 76%
16:00 +15°C° 0 mm 4 m/S 754 mmHg 80%
17:00 +14°C° 0 mm 4 m/S 754 mmHg 82%
18:00 +14°C° 0 mm 4 m/S 754 mmHg 83%
19:00 +13°C° 0 mm 4 m/S 754 mmHg 85%
20:00 +14°C° 0 mm 4 m/S 754 mmHg 84%
21:00 +14°C° 0 mm 4 m/S 754 mmHg 83%
22:00 +14°C° 0 mm 4 m/S 754 mmHg 82%
23:00 +14°C° 0 mm 4 m/S 753 mmHg 83%

23 Oktober, Freitag

Zeit Temperatur Niederschläge Wind Luftdruck Luftfeuchtigkeit
00:00 +13°C° 0 mm 4 m/S 753 mmHg 84%
01:00 +13°C° 0 mm 4 m/S 753 mmHg 85%
02:00 +13°C° 0 mm 5 m/S 753 mmHg 84%
03:00 +13°C° 0 mm 5 m/S 752 mmHg 84%
04:00 +13°C° 0 mm 6 m/S 752 mmHg 83%
05:00 +13°C° 0.8 mm 6 m/S 752 mmHg 85%
06:00 +13°C° 0.8 mm 6 m/S 751 mmHg 87%
07:00 +13°C° 0.8 mm 6 m/S 751 mmHg 90%
08:00 +13°C° 0.2 mm 6 m/S 751 mmHg 87%
09:00 +14°C° 0.2 mm 7 m/S 751 mmHg 85%
10:00 +14°C° 0.2 mm 7 m/S 752 mmHg 83%
11:00 +15°C° 0.1 mm 7 m/S 752 mmHg 77%
12:00 +15°C° 0.1 mm 7 m/S 752 mmHg 71%
13:00 +16°C° 0.1 mm 7 m/S 752 mmHg 66%
14:00 +15°C° 0.1 mm 6 m/S 752 mmHg 70%
15:00 +13°C° 0.1 mm 5 m/S 752 mmHg 74%
16:00 +12°C° 0.1 mm 4 m/S 752 mmHg 78%
17:00 +11°C° 0 mm 4 m/S 753 mmHg 80%
18:00 +11°C° 0 mm 4 m/S 753 mmHg 82%
19:00 +10°C° 0 mm 4 m/S 753 mmHg 84%
20:00 +10°C° 0 mm 4 m/S 753 mmHg 85%
21:00 +10°C° 0 mm 3 m/S 754 mmHg 87%
22:00 +9°C° 0 mm 3 m/S 754 mmHg 88%
23:00 +9°C° 0 mm 3 m/S 754 mmHg 88%

24 Oktober, Samstag

Zeit Temperatur Niederschläge Wind Luftdruck Luftfeuchtigkeit
00:00 +9°C° 0 mm 3 m/S 754 mmHg 89%
01:00 +9°C° 0 mm 2 m/S 754 mmHg 89%
02:00 +9°C° 0 mm 2 m/S 753 mmHg 88%
03:00 +9°C° 0 mm 2 m/S 753 mmHg 88%
04:00 +9°C° 0 mm 2 m/S 753 mmHg 87%
05:00 +9°C° 0 mm 3 m/S 753 mmHg 89%
06:00 +9°C° 0 mm 3 m/S 753 mmHg 90%
07:00 +9°C° 0 mm 3 m/S 752 mmHg 92%
08:00 +10°C° 0.1 mm 3 m/S 752 mmHg 90%
09:00 +11°C° 0.1 mm 4 m/S 752 mmHg 88%
10:00 +12°C° 0.1 mm 4 m/S 752 mmHg 86%
11:00 +11°C° 0.9 mm 4 m/S 752 mmHg 87%
12:00 +10°C° 0.9 mm 5 m/S 752 mmHg 88%
13:00 +9°C° 0.9 mm 5 m/S 752 mmHg 89%
14:00 +9°C° 0.4 mm 5 m/S 752 mmHg 87%
15:00 +9°C° 0.4 mm 5 m/S 752 mmHg 86%
16:00 +9°C° 0.4 mm 5 m/S 752 mmHg 85%
17:00 +8°C° 0.1 mm 5 m/S 753 mmHg 85%
18:00 +8°C° 0.1 mm 5 m/S 753 mmHg 85%
19:00 +7°C° 0.1 mm 5 m/S 754 mmHg 85%
20:00 +7°C° 0.1 mm 5 m/S 754 mmHg 85%
21:00 +7°C° 0.1 mm 5 m/S 755 mmHg 85%
22:00 +7°C° 0.1 mm 5 m/S 755 mmHg 85%
23:00 +7°C° 0 mm 5 m/S 755 mmHg 85%

25 Oktober, Sonntag

Zeit Temperatur Niederschläge Wind Luftdruck Luftfeuchtigkeit
00:00 +7°C° 0 mm 5 m/S 756 mmHg 86%
01:00 +6°C° 0 mm 5 m/S 756 mmHg 86%
02:00 +6°C° 0 mm 4 m/S 756 mmHg 87%
03:00 +6°C° 0 mm 4 m/S 757 mmHg 87%
04:00 +6°C° 0 mm 4 m/S 757 mmHg 88%
05:00 +6°C° 0 mm 4 m/S 757 mmHg 89%
06:00 +5°C° 0 mm 3 m/S 758 mmHg 91%
07:00 +5°C° 0 mm 3 m/S 758 mmHg 93%
08:00 +7°C° 0 mm 3 m/S 758 mmHg 88%
09:00 +9°C° 0 mm 3 m/S 759 mmHg 83%
10:00 +10°C° 0 mm 3 m/S 759 mmHg 78%
11:00 +10°C° 0 mm 3 m/S 759 mmHg 76%
12:00 +11°C° 0 mm 3 m/S 759 mmHg 73%
13:00 +12°C° 0 mm 2 m/S 759 mmHg 70%
14:00 +12°C° 0 mm 2 m/S 759 mmHg 73%
15:00 +11°C° 0 mm 1 m/S 759 mmHg 77%
16:00 +10°C° 0 mm 1 m/S 759 mmHg 80%
17:00 +9°C° 0 mm 1 m/S 759 mmHg 82%
18:00 +9°C° 0 mm 1 m/S 759 mmHg 84%
19:00 +8°C° 0 mm 1 m/S 759 mmHg 85%
20:00 +7°C° 0 mm 2 m/S 760 mmHg 86%
21:00 +6°C° 0 mm 2 m/S 760 mmHg 87%
22:00 +6°C° 0 mm 2 m/S 760 mmHg 88%
23:00 +5°C° 0 mm 3 m/S 760 mmHg 89%

26 Oktober, Montag

Zeit Temperatur Niederschläge Wind Luftdruck Luftfeuchtigkeit
00:00 +5°C° 0 mm 3 m/S 760 mmHg 90%
01:00 +4°C° 0 mm 3 m/S 759 mmHg 91%
02:00 +4°C° 0 mm 3 m/S 759 mmHg 91%
03:00 +4°C° 0 mm 3 m/S 759 mmHg 92%
04:00 +4°C° 0 mm 3 m/S 759 mmHg 92%
05:00 +4°C° 0 mm 3 m/S 759 mmHg 92%
06:00 +4°C° 0 mm 3 m/S 759 mmHg 92%
07:00 +4°C° 0 mm 4 m/S 759 mmHg 92%
08:00 +5°C° 0 mm 4 m/S 759 mmHg 86%
09:00 +7°C° 0 mm 5 m/S 759 mmHg 79%
10:00 +8°C° 0 mm 5 m/S 759 mmHg 73%
11:00 +9°C° 0 mm 5 m/S 758 mmHg 69%
12:00 +10°C° 0 mm 5 m/S 758 mmHg 65%
13:00 +10°C° 0 mm 5 m/S 758 mmHg 61%
14:00 +9°C° 0 mm 5 m/S 757 mmHg 65%
15:00 +8°C° 0 mm 4 m/S 757 mmHg 70%
16:00 +8°C° 0 mm 4 m/S 757 mmHg 74%
17:00 +7°C° 0 mm 4 m/S 757 mmHg 77%
18:00 +7°C° 0 mm 4 m/S 757 mmHg 79%
19:00 +6°C° 0 mm 4 m/S 757 mmHg 81%
20:00 +6°C° 0 mm 4 m/S 757 mmHg 82%
21:00 +6°C° 0 mm 4 m/S 756 mmHg 82%
22:00 +6°C° 0 mm 5 m/S 756 mmHg 83%
23:00 +6°C° 0 mm 4 m/S 756 mmHg 84%
Mehr zeigen